Change the Weather History Date:

Monday, February 24, 2014

  Actual Average Record
Temperature  
Mean Temperature 12 °F 29 °F  
Max Temperature 18 °F 38 °F 64 °F (1995)
Min Temperature 6 °F 19 °F -17 °F (1919)
Degree Days  
Heating Degree Days 53 36  
Month to date heating degree days 1106 917  
Since 1 July heating degree days 5743 5708  
Cooling Degree Days 0 0  
Month to date cooling degree days 0 0  
Year to date cooling degree days 0 0  
Moisture  
Dew Point 2 °F    
Average Humidity 65    
Maximum Humidity 80    
Minimum Humidity 49    
Precipitation  
Precipitation 0.01 in 0.03 in 0.55 in (1904)
Month to date precipitation 1.08 0.82  
Year to date precipitation 2.43 2.15  
Snow  
Snow 0.10 in - - ()
Month to date snowfall 9.5  
Year to date snowfall 25.1  
Since 1 July snowfall 58.6  
Snow Depth 1.00 in    
Sea Level Pressure  
Sea Level Pressure 30.32 in    
Wind  
Wind Speed 9 mph (North)    
Max Wind Speed 24 mph    
Max Gust Speed 32 mph    
Visibility 7 miles    
Events Snow    
T = Trace of Precipitation, MM = Missing Value Source: NWS Daily Summary

Daily Weather History Graph

Daily Weather History Graph

Search for Another Location

Airport or City:

Trip Planner

Search our weather history database for the weather conditions in past years. The results will help you decide how hot, cold, wet, or windy it might be!

Date:

Astronomy

Feb. 24, 2014 Rise Set
Actual Time 7:27 AM MST 6:13 PM MST
Civil Twilight 6:56 AM MST 6:45 PM MST
Nautical Twilight 6:19 AM MST 7:21 PM MST
Astronomical Twilight 5:43 AM MST 7:57 PM MST
Moon 3:45 AM MST (2/24) 1:04 PM MST (2/24)
Length of Visible Light 11h 48m
Length of Day
10h 45m
Waning Crescent, 27% of the Moon is Illuminated
Feb 24
Waning Crescent
Mar 1
New
Mar 8
First Quarter
Mar 16
Full
Mar 23
Last Quarter

Hourly Weather History & Observations

Time (MST) Temp. Windchill Dew Point Humidity Pressure Visibility Wind Dir Wind Speed Gust Speed Precip Events Conditions
12:36 AM 8.6 °F -11.4 °F 3.2 °F 79% 30.06 in 2.0 mi NNE 21.9 mph 29.9 mph 0.00 in Snow Light Snow
12:55 AM 8.1 °F -11.7 °F 1.9 °F 76% 30.23 in 2.0 mi North 20.7 mph - 0.00 in Snow Light Snow
1:05 AM 8.6 °F -11.0 °F 1.4 °F 73% 30.07 in 1.8 mi North 20.7 mph 29.9 mph 0.00 in Snow Light Snow
1:13 AM 8.6 °F -11.0 °F 1.4 °F 73% 30.08 in 2.5 mi North 20.7 mph 29.9 mph 0.00 in Snow Light Snow
1:41 AM 8.6 °F -10.0 °F 1.4 °F 73% 30.10 in 1.5 mi North 18.4 mph 31.1 mph 0.00 in Snow Light Snow
1:53 AM 8.6 °F -11.4 °F 1.4 °F 73% 30.10 in 1.8 mi North 21.9 mph 28.8 mph 0.00 in Snow Light Snow
1:55 AM 8.1 °F -10.7 °F 1.9 °F 76% 30.26 in 1.8 mi North 18.4 mph 28.8 mph 0.00 in Snow Light Snow
2:02 AM 8.6 °F -11.0 °F 1.4 °F 73% 30.10 in 2.5 mi North 20.7 mph 28.8 mph 0.00 in Snow Light Snow
2:44 AM 8.6 °F -11.9 °F 1.4 °F 73% 30.11 in 3.0 mi North 23.0 mph 28.8 mph 0.00 in   Overcast
2:55 AM 8.1 °F -11.7 °F 1.0 °F 73% 30.28 in 5.0 mi NNE 20.7 mph 27.6 mph 0.00 in   Overcast
3:55 AM 8.1 °F -10.2 °F -0.9 °F 67% 30.31 in 7.0 mi North 17.3 mph 26.5 mph 0.00 in   Overcast
4:55 AM 8.1 °F -11.7 °F -0.9 °F 67% 30.35 in 9.0 mi North 20.7 mph 26.5 mph N/A   Overcast
5:55 AM 8.1 °F -11.2 °F -2.9 °F 61% 30.38 in 10.0 mi NNE 19.6 mph - N/A   Overcast
6:55 AM 7.0 °F -11.0 °F -5.1 °F 58% 30.40 in 10.0 mi North 16.1 mph - N/A   Overcast
7:55 AM 6.1 °F -10.2 °F -6.0 °F 58% 30.43 in 10.0 mi North 12.7 mph - N/A   Scattered Clouds
8:55 AM 7.0 °F -9.1 °F -5.1 °F 58% 30.46 in 10.0 mi North 12.7 mph - N/A   Clear
9:55 AM 9.0 °F -3.2 °F -4.0 °F 56% 30.47 in 10.0 mi North 8.1 mph - N/A   Clear
10:55 AM 10.9 °F -0.8 °F -2.0 °F 56% 30.47 in 10.0 mi NNE 8.1 mph - N/A   Clear
11:55 AM 12.9 °F -0.9 °F -0.9 °F 54% 30.47 in 10.0 mi NE 11.5 mph - N/A   Clear
12:55 PM 15.1 °F 7.7 °F -0.9 °F 49% 30.45 in 10.0 mi NNE 4.6 mph - N/A   Overcast
1:55 PM 16.0 °F 8.8 °F -0.0 °F 49% 30.44 in 10.0 mi North 4.6 mph - N/A   Scattered Clouds
2:55 PM 17.1 °F - 1.0 °F 50% 30.42 in 10.0 mi Calm Calm - N/A   Overcast
3:55 PM 18.0 °F - 1.0 °F 48% 30.41 in 10.0 mi Calm Calm - N/A   Overcast
4:55 PM 17.1 °F - 3.0 °F 54% 30.40 in 10.0 mi Calm Calm - N/A   Overcast
5:55 PM 16.0 °F 10.4 °F 6.1 °F 65% 30.40 in 10.0 mi West 3.5 mph - N/A   Overcast
6:22 PM 15.8 °F - 8.6 °F 73% 30.22 in 2.0 mi Calm Calm - 0.00 in Snow Light Snow
6:55 PM 15.1 °F - 10.0 °F 80% 30.38 in 3.0 mi Calm Calm - 0.00 in Snow Light Snow
7:55 PM 15.1 °F - 10.9 °F 84% 30.38 in 3.0 mi Calm Calm - 0.01 in Snow Light Snow
8:55 PM 16.0 °F - 10.0 °F 77% 30.38 in 10.0 mi Calm Calm - 0.00 in   Overcast
9:55 PM 15.1 °F - 10.0 °F 80% 30.38 in 10.0 mi Calm Calm - N/A   Mostly Cloudy
10:55 PM 15.1 °F 7.7 °F 7.0 °F 70% 30.40 in 10.0 mi WNW 4.6 mph - N/A   Overcast
11:55 PM 12.9 °F 0.7 °F 3.0 °F 65% 30.41 in 10.0 mi North 9.2 mph - N/A   Clear